sat.trackr.live / text

‹ back to catalog

STARLINK-32441

NORAD 61668 · 2024-193H

PAYLOAD ACTIVE UNKNOWN

§ Identity

Operator
Country
US
Launch date
2024-10-26
Launch site
AFETR
Launch vehicle
Mass (kg)
RCS (m²)

Purposes: comms

External: N2YO · Heavens-Above · Gunter

§ Orbital elements

Epoch: 2026-05-25T03:56:01.411872Z

Period
94.11 min
Inclination
53.1612°
Eccentricity
0.0001311
Mean motion
15.30192580 rev/d
Perigee alt
474.3 km
Apogee alt
476.1 km
Semi-major
6,853.4 km
B*
1.0238e-5
RAAN
95.9019°
Arg perigee
94.6522°
Mean anomaly
265.4628°
Rev number
8,823

§ Raw data

STARLINK-324411 61668U 24193H   26145.16390523 -.00000056  00000+0  10238-4 0  99922 61668  53.1612  95.9019 0001311  94.6522 265.4628 15.30192580 88232

JSON: /api/v1/satellites/61668 · /tle

For live sub-satellite position, see the globe view (requires WebGL).

§ Visibility from observer

Set your observer location to see the next 7 days of passes ≥ 10°. The values pass through the URL so the page stays shareable.

No JS? Fill the form by hand. The geolocation button needs JavaScript.